Hourly Weather Avrig

Today, 7 May, Friday

Time Temperature Precipitation Wind Pressure Humidity
00:00 +10°C° 0 mm 1 mps 722 mmHg 71%
01:00 +9°C° 0 mm 0 mps 722 mmHg 70%
02:00 +9°C° 0 mm 0 mps 722 mmHg 71%
03:00 +9°C° 0 mm 0 mps 722 mmHg 72%
04:00 +11°C° 0 mm 1 mps 721 mmHg 73%
05:00 +11°C° 0 mm 1 mps 721 mmHg 74%
06:00 +12°C° 0 mm 1 mps 721 mmHg 73%
07:00 +13°C° 0 mm 1 mps 721 mmHg 71%
08:00 +15°C° 0 mm 1 mps 721 mmHg 68%
09:00 +16°C° 0 mm 2 mps 721 mmHg 64%
10:00 +18°C° 0 mm 2 mps 721 mmHg 60%
11:00 +19°C° 0 mm 2 mps 720 mmHg 57%
12:00 +19°C° 0.1 mm 2 mps 720 mmHg 59%
13:00 +19°C° 0.1 mm 2 mps 720 mmHg 62%
14:00 +18°C° 0.1 mm 2 mps 720 mmHg 64%
15:00 +18°C° 0 mm 2 mps 719 mmHg 67%
16:00 +18°C° 0 mm 2 mps 719 mmHg 70%
17:00 +17°C° 0 mm 2 mps 719 mmHg 73%
18:00 +16°C° 0.2 mm 2 mps 719 mmHg 78%
19:00 +15°C° 0.2 mm 1 mps 719 mmHg 83%
20:00 +14°C° 0.2 mm 1 mps 719 mmHg 88%
21:00 +13°C° 0.4 mm 1 mps 719 mmHg 90%
22:00 +13°C° 0.4 mm 1 mps 719 mmHg 93%
23:00 +12°C° 0.4 mm 1 mps 720 mmHg 95%

Tomorrow, 8 May, Saturday

Time Temperature Precipitation Wind Pressure Humidity
00:00 +12°C° 1.1 mm 2 mps 720 mmHg 95%
01:00 +10°C° 1.1 mm 2 mps 721 mmHg 96%
02:00 +9°C° 1.1 mm 2 mps 722 mmHg 96%
03:00 +9°C° 0.2 mm 2 mps 722 mmHg 95%
04:00 +9°C° 0.2 mm 2 mps 722 mmHg 94%
05:00 +8°C° 0.2 mm 3 mps 723 mmHg 94%
06:00 +8°C° 0.2 mm 3 mps 724 mmHg 92%
07:00 +8°C° 0.2 mm 3 mps 724 mmHg 90%
08:00 +7°C° 0.2 mm 3 mps 725 mmHg 88%
09:00 +8°C° 0 mm 3 mps 726 mmHg 82%
10:00 +8°C° 0 mm 3 mps 726 mmHg 77%
11:00 +9°C° 0 mm 2 mps 726 mmHg 71%
12:00 +10°C° 0.1 mm 2 mps 726 mmHg 66%
13:00 +11°C° 0.1 mm 3 mps 726 mmHg 61%
14:00 +12°C° 0.1 mm 3 mps 726 mmHg 56%
15:00 +12°C° 0.2 mm 3 mps 726 mmHg 58%
16:00 +12°C° 0.2 mm 3 mps 727 mmHg 60%
17:00 +11°C° 0.2 mm 3 mps 727 mmHg 63%
18:00 +10°C° 0 mm 2 mps 727 mmHg 69%
19:00 +8°C° 0 mm 2 mps 728 mmHg 75%
20:00 +8°C° 0 mm 1 mps 728 mmHg 81%
21:00 +7°C° 0 mm 1 mps 729 mmHg 81%
22:00 +7°C° 0 mm 1 mps 729 mmHg 82%
23:00 +7°C° 0 mm 1 mps 729 mmHg 82%

Day after tomorrow, 9 May, Sunday

Time Temperature Precipitation Wind Pressure Humidity
00:00 +6°C° 0 mm 1 mps 730 mmHg 82%
01:00 +6°C° 0 mm 1 mps 730 mmHg 82%
02:00 +6°C° 0 mm 1 mps 730 mmHg 81%
03:00 +5°C° 0 mm 1 mps 730 mmHg 81%
04:00 +5°C° 0 mm 1 mps 730 mmHg 81%
05:00 +5°C° 0 mm 1 mps 731 mmHg 81%
06:00 +7°C° 0 mm 1 mps 731 mmHg 75%
07:00 +9°C° 0 mm 1 mps 731 mmHg 68%
08:00 +11°C° 0 mm 1 mps 731 mmHg 61%
09:00 +12°C° 0 mm 2 mps 731 mmHg 56%
10:00 +14°C° 0 mm 2 mps 731 mmHg 52%
11:00 +14°C° 0 mm 3 mps 731 mmHg 47%
12:00 +16°C° 0 mm 3 mps 730 mmHg 46%
13:00 +17°C° 0 mm 3 mps 730 mmHg 45%
14:00 +17°C° 0 mm 3 mps 730 mmHg 44%
15:00 +17°C° 0 mm 3 mps 730 mmHg 47%
16:00 +17°C° 0 mm 2 mps 730 mmHg 49%
17:00 +17°C° 0 mm 2 mps 729 mmHg 52%
18:00 +15°C° 0 mm 2 mps 730 mmHg 60%
19:00 +13°C° 0 mm 2 mps 730 mmHg 67%
20:00 +10°C° 0 mm 2 mps 730 mmHg 75%
21:00 +9°C° 0 mm 2 mps 730 mmHg 77%
22:00 +8°C° 0 mm 2 mps 730 mmHg 79%
23:00 +8°C° 0 mm 2 mps 730 mmHg 81%

10 May, Monday

Time Temperature Precipitation Wind Pressure Humidity
00:00 +7°C° 0 mm 2 mps 730 mmHg 82%
01:00 +7°C° 0 mm 2 mps 730 mmHg 83%
02:00 +7°C° 0 mm 2 mps 730 mmHg 85%
03:00 +7°C° 0 mm 1 mps 730 mmHg 85%
04:00 +7°C° 0 mm 1 mps 730 mmHg 85%
05:00 +7°C° 0 mm 1 mps 730 mmHg 86%
06:00 +9°C° 0 mm 1 mps 730 mmHg 78%
07:00 +10°C° 0 mm 2 mps 730 mmHg 70%
08:00 +13°C° 0 mm 2 mps 730 mmHg 62%
09:00 +15°C° 0 mm 2 mps 729 mmHg 57%
10:00 +17°C° 0 mm 2 mps 729 mmHg 52%
11:00 +19°C° 0 mm 3 mps 729 mmHg 47%
12:00 +19°C° 0 mm 3 mps 729 mmHg 46%
13:00 +20°C° 0 mm 3 mps 729 mmHg 45%
14:00 +21°C° 0 mm 3 mps 728 mmHg 43%
15:00 +21°C° 0 mm 3 mps 728 mmHg 46%
16:00 +21°C° 0 mm 3 mps 728 mmHg 48%
17:00 +20°C° 0 mm 2 mps 728 mmHg 51%
18:00 +18°C° 0 mm 2 mps 727 mmHg 57%
19:00 +15°C° 0 mm 2 mps 727 mmHg 64%
20:00 +13°C° 0 mm 2 mps 727 mmHg 71%
21:00 +12°C° 0 mm 2 mps 728 mmHg 72%
22:00 +10°C° 0 mm 2 mps 728 mmHg 74%
23:00 +11°C° 0 mm 1 mps 728 mmHg 75%

11 May, Tuesday

Time Temperature Precipitation Wind Pressure Humidity
00:00 +10°C° 0 mm 1 mps 728 mmHg 77%
01:00 +10°C° 0 mm 1 mps 728 mmHg 79%
02:00 +9°C° 0 mm 1 mps 727 mmHg 80%
03:00 +9°C° 0 mm 1 mps 727 mmHg 81%
04:00 +8°C° 0 mm 1 mps 727 mmHg 81%
05:00 +8°C° 0 mm 1 mps 727 mmHg 82%
06:00 +10°C° 0 mm 1 mps 727 mmHg 76%
07:00 +12°C° 0 mm 1 mps 727 mmHg 69%
08:00 +15°C° 0 mm 2 mps 727 mmHg 63%
09:00 +16°C° 0 mm 2 mps 726 mmHg 58%
10:00 +18°C° 0 mm 2 mps 726 mmHg 54%
11:00 +20°C° 0 mm 3 mps 726 mmHg 49%
12:00 +21°C° 0 mm 3 mps 726 mmHg 47%
13:00 +22°C° 0 mm 3 mps 725 mmHg 45%
14:00 +22°C° 0 mm 3 mps 725 mmHg 43%
15:00 +23°C° 0 mm 2 mps 725 mmHg 46%
16:00 +23°C° 0 mm 2 mps 724 mmHg 48%
17:00 +23°C° 0 mm 2 mps 724 mmHg 50%
18:00 +19°C° 0 mm 2 mps 724 mmHg 57%
19:00 +16°C° 0 mm 2 mps 724 mmHg 64%
20:00 +14°C° 0 mm 2 mps 724 mmHg 70%
21:00 +13°C° 0 mm 2 mps 724 mmHg 72%
22:00 +12°C° 0 mm 2 mps 724 mmHg 74%
23:00 +10°C° 0 mm 2 mps 724 mmHg 75%

12 May, Wednesday

Time Temperature Precipitation Wind Pressure Humidity
00:00 +10°C° 0 mm 2 mps 723 mmHg 76%
01:00 +10°C° 0 mm 2 mps 723 mmHg 78%
02:00 +9°C° 0 mm 2 mps 723 mmHg 79%
03:00 +10°C° 0 mm 1 mps 722 mmHg 79%
04:00 +10°C° 0 mm 1 mps 722 mmHg 79%
05:00 +9°C° 0 mm 1 mps 722 mmHg 79%
06:00 +12°C° 0 mm 1 mps 721 mmHg 74%
07:00 +14°C° 0 mm 2 mps 721 mmHg 68%
08:00 +16°C° 0 mm 2 mps 721 mmHg 62%
09:00 +18°C° 0 mm 3 mps 720 mmHg 58%
10:00 +19°C° 0 mm 3 mps 720 mmHg 54%
11:00 +21°C° 0 mm 3 mps 719 mmHg 50%
12:00 +21°C° 0 mm 3 mps 719 mmHg 52%
13:00 +21°C° 0 mm 4 mps 719 mmHg 55%
14:00 +21°C° 0 mm 4 mps 718 mmHg 57%
15:00 +20°C° 0 mm 4 mps 718 mmHg 61%
16:00 +19°C° 0 mm 4 mps 717 mmHg 64%
17:00 +18°C° 0 mm 4 mps 717 mmHg 68%
18:00 +15°C° 0 mm 4 mps 717 mmHg 73%
19:00 +14°C° 0 mm 3 mps 717 mmHg 78%
20:00 +12°C° 0 mm 3 mps 717 mmHg 83%
21:00 +13°C° 0.2 mm 2 mps 717 mmHg 84%
22:00 +13°C° 0.2 mm 2 mps 717 mmHg 84%
23:00 +13°C° 0.2 mm 1 mps 716 mmHg 85%
Show more

We Need Your Consent

Meteoprog and our Service Providers may store and access personal data such as cookies, device identifiers or other similar technologies on your device and process such data to personalise content and ads, as well as provide social media features and to analyse the traffic.

  • Store and/or access information on your device

    Cookies, device identifiers or other information can be stored or accessed on your device for the purposes indicated above.

  • Personalised ads and content, ad and content measurement, audience insights, and products development

    Ads and content can be personalised based on a profile. More data can be added to better personalise ads and content. Ad and content performance can be measured. Insights about the audience who saw the ads and content can be derived. Such data can be used to develop or improve user’s experience, systems and software.

By clicking ‘I Agree’ you will allow the use of indicated cookies, device identifiers, web beacons or other similar technologies. Your settings can be changed in the browser on your device.

For certain purposes, legitimate interests may be relied on, rather than consent. You can read more about this in our Privacy and Cookie Policy.